| time (UTC) | temp C | wind direction | speed KPH | gust KPH | rain 1hr cm | rain 24hr cm | rain mn cm | humidity % | barometer mb |
| 20260504050305 | 12 | 189 | 0.0 | 1.6 | 0.00 | 0.00 | 0.00 | 62 | 1019.2 |
| 20260504045803 | 13 | 189 | 0.0 | 0.0 | 0.00 | 0.00 | 0.00 | 62 | 1019.1 |
| 20260504045304 | 13 | 189 | 0.0 | 0.0 | 0.00 | 0.00 | 0.00 | 61 | 1019.3 |
| 20260504044800 | 13 | 189 | 0.0 | 0.0 | 0.00 | 0.00 | 0.00 | 59 | 1019.2 |
| 20260504044258 | 14 | 190 | 0.0 | 0.0 | 0.00 | 0.00 | 0.00 | 57 | 1019.3 |
| 20260504043755 | 14 | 200 | 0.0 | 1.6 | 0.00 | 0.00 | 0.00 | 55 | 1019.2 |
| 20260504043251 | 15 | 234 | 0.0 | 1.6 | 0.00 | 0.00 | 0.00 | 53 | 1019.2 |
| 20260504042749 | 15 | 237 | 1.6 | 4.8 | 0.00 | 0.00 | 0.00 | 53 | 1019.4 |
| 20260504042245 | 15 | 234 | 0.0 | 1.6 | 0.00 | 0.00 | 0.00 | 52 | 1019.2 |
| 20260504041742 | 15 | 188 | 1.6 | 4.8 | 0.00 | 0.00 | 0.00 | 51 | 1019.2 |
| 20260504041238 | 15 | 250 | 1.6 | 3.2 | 0.00 | 0.00 | 0.00 | 51 | 1019.2 |
| 20260504040734 | 15 | 229 | 3.2 | 9.7 | 0.00 | 0.00 | 0.00 | 50 | 1019.4 |
| 20260504040232 | 15 | 255 | 4.8 | 6.4 | 0.00 | 0.00 | 0.00 | 50 | 1019.4 |
| 20260504035727 | 15 | 258 | 6.4 | 6.4 | 0.00 | 0.03 | 0.03 | 49 | 1019.3 |
| 20260504035225 | 15 | 264 | 6.4 | 6.4 | 0.00 | 0.03 | 0.03 | 48 | 1019.4 |
| 20260504034723 | 15 | 259 | 3.2 | 9.7 | 0.00 | 0.03 | 0.03 | 48 | 1019.3 |
| 20260504034220 | 16 | 260 | 3.2 | 6.4 | 0.00 | 0.03 | 0.03 | 48 | 1019.3 |
| 20260504033717 | 16 | 261 | 1.6 | 6.4 | 0.00 | 0.03 | 0.03 | 48 | 1019.5 |
| 20260504033214 | 16 | 271 | 6.4 | 9.7 | 0.00 | 0.03 | 0.03 | 48 | 1019.3 |
| 20260504032711 | 16 | 236 | 1.6 | 3.2 | 0.00 | 0.03 | 0.03 | 48 | 1019.5 |
| 20260504032209 | 16 | 234 | 0.0 | 3.2 | 0.00 | 0.03 | 0.03 | 48 | 1019.2 |
| 20260504031705 | 16 | 231 | 1.6 | 4.8 | 0.00 | 0.03 | 0.03 | 47 | 1019.4 |
| 20260504031202 | 16 | 222 | 3.2 | 6.4 | 0.00 | 0.03 | 0.03 | 47 | 1019.4 |
| 20260504030658 | 16 | 264 | 3.2 | 4.8 | 0.00 | 0.03 | 0.03 | 47 | 1019.4 |
| 20260504030155 | 16 | 238 | 4.8 | 6.4 | 0.00 | 0.03 | 0.03 | 46 | 1019.2 |
| 20260504025652 | 16 | 260 | 6.4 | 6.4 | 0.00 | 0.03 | 0.03 | 46 | 1019.2 |
| 20260504025148 | 15 | 235 | 4.8 | 12.9 | 0.00 | 0.03 | 0.03 | 47 | 1019.3 |
| 20260504024646 | 15 | 245 | 1.6 | 3.2 | 0.00 | 0.03 | 0.03 | 47 | 1019.4 |
| 20260504024142 | 15 | 228 | 3.2 | 4.8 | 0.00 | 0.03 | 0.03 | 47 | 1019.2 |
| 20260504023639 | 15 | 228 | 1.6 | 3.2 | 0.00 | 0.03 | 0.03 | 49 | 1019.0 |
| 20260504023135 | 15 | 212 | 0.0 | 1.6 | 0.00 | 0.03 | 0.03 | 48 | 1019.1 |
| 20260504022632 | 15 | 231 | 1.6 | 3.2 | 0.00 | 0.03 | 0.03 | 48 | 1018.9 |
| 20260504022127 | 15 | 235 | 3.2 | 3.2 | 0.00 | 0.03 | 0.03 | 47 | 1019.1 |
| 20260504021626 | 15 | 221 | 3.2 | 4.8 | 0.00 | 0.03 | 0.03 | 48 | 1019.0 |
| 20260504021122 | 15 | 248 | 1.6 | 3.2 | 0.00 | 0.03 | 0.03 | 49 | 1019.0 |
| 20260504020619 | 15 | 222 | 1.6 | 1.6 | 0.00 | 0.03 | 0.03 | 51 | 1018.6 |
| 20260504020115 | 15 | 229 | 1.6 | 1.6 | 0.00 | 0.03 | 0.03 | 52 | 1018.8 |
| 20260504015612 | 15 | 220 | 0.0 | 1.6 | 0.00 | 0.03 | 0.03 | 57 | 1018.5 |
| 20260504015108 | 15 | 219 | 0.0 | 1.6 | 0.00 | 0.03 | 0.03 | 55 | 1018.6 |
| 20260504014604 | 15 | 219 | 0.0 | 1.6 | 0.00 | 0.03 | 0.03 | 53 | 1018.8 |
| 20260504014101 | 15 | 219 | 0.0 | 0.0 | 0.00 | 0.03 | 0.03 | 50 | 1018.5 |
| 20260504013559 | 15 | 219 | 1.6 | 1.6 | 0.00 | 0.03 | 0.03 | 49 | 1018.4 |
| 20260504013055 | 15 | 212 | 0.0 | 3.2 | 0.00 | 0.03 | 0.03 | 52 | 1018.4 |
| 20260504012553 | 15 | 196 | 1.6 | 1.6 | 0.00 | 0.03 | 0.03 | 52 | 1018.5 |
| 20260504012051 | 15 | 175 | 0.0 | 0.0 | 0.00 | 0.03 | 0.03 | 56 | 1018.3 |
| 20260504011547 | 15 | 175 | 0.0 | 0.0 | 0.00 | 0.03 | 0.03 | 54 | 1018.3 |
| 20260504011043 | 15 | 175 | 0.0 | 0.0 | 0.00 | 0.03 | 0.03 | 56 | 1018.3 |
| 20260504010539 | 15 | 175 | 0.0 | 0.0 | 0.00 | 0.03 | 0.03 | 54 | 1018.3 |
| 20260504010036 | 16 | 175 | 0.0 | 0.0 | 0.00 | 0.03 | 0.03 | 50 | 1018.2 |
| 20260504005532 | 16 | 172 | 0.0 | 0.0 | 0.00 | 0.03 | 0.03 | 54 | 1018.1 |
| 20260504005030 | 16 | 172 | 0.0 | 0.0 | 0.00 | 0.03 | 0.03 | 50 | 1018.2 |
| 20260504004528 | 16 | 172 | 0.0 | 0.0 | 0.00 | 0.03 | 0.03 | 49 | 1018.1 |
| 20260504004024 | 16 | 172 | 0.0 | 1.6 | 0.00 | 0.03 | 0.03 | 49 | 1018.2 |
| 20260504003520 | 17 | 172 | 0.0 | 0.0 | 0.00 | 0.03 | 0.03 | 48 | 1018.0 |
| 20260504003018 | 17 | 172 | 0.0 | 0.0 | 0.00 | 0.03 | 0.03 | 48 | 1018.0 |
| 20260504002514 | 17 | 171 | 0.0 | 0.0 | 0.00 | 0.03 | 0.03 | 47 | 1017.8 |
| 20260504002012 | 17 | 171 | 0.0 | 0.0 | 0.00 | 0.03 | 0.03 | 47 | 1018.0 |
| 20260504001509 | 17 | 171 | 0.0 | 1.6 | 0.00 | 0.03 | 0.03 | 44 | 1017.8 |
| 20260504001005 | 18 | 164 | 0.0 | 1.6 | 0.00 | 0.03 | 0.03 | 45 | 1017.8 |
| 20260504000503 | 18 | 169 | 0.0 | 1.6 | 0.00 | 0.03 | 0.03 | 44 | 1018.0 |
| 20260504000000 | 18 | 160 | 0.0 | 1.6 | 0.00 | 0.03 | 0.03 | 43 | 1017.9 |
| 20260503235458 | 18 | 158 | 0.0 | 0.0 | 0.00 | 0.03 | 0.03 | 42 | 1017.8 |
| 20260503234955 | 18 | 189 | 0.0 | 1.6 | 0.00 | 0.03 | 0.03 | 41 | 1017.7 |
| 20260503234452 | 19 | 191 | 0.0 | 3.2 | 0.00 | 0.03 | 0.03 | 41 | 1017.7 |
| 20260503233950 | 19 | 198 | 1.6 | 4.8 | 0.00 | 0.03 | 0.03 | 39 | 1017.7 |
| 20260503233446 | 19 | 156 | 0.0 | 1.6 | 0.00 | 0.03 | 0.03 | 39 | 1017.9 |
| 20260503232943 | 20 | 168 | 1.6 | 3.2 | 0.00 | 0.03 | 0.03 | 38 | 1017.9 |
| 20260503232440 | 20 | 213 | 3.2 | 3.2 | 0.00 | 0.03 | 0.03 | 37 | 1017.8 |
| 20260503231938 | 20 | 227 | 3.2 | 4.8 | 0.00 | 0.03 | 0.03 | 38 | 1017.8 |
| 20260503231435 | 20 | 176 | 3.2 | 6.4 | 0.00 | 0.03 | 0.03 | 37 | 1017.7 |
| 20260503230931 | 20 | 261 | 3.2 | 3.2 | 0.00 | 0.03 | 0.03 | 37 | 1017.8 |
| 20260503230428 | 20 | 240 | 4.8 | 6.4 | 0.00 | 0.03 | 0.03 | 36 | 1017.9 |
| 20260503225926 | 20 | 173 | 1.6 | 4.8 | 0.00 | 0.03 | 0.03 | 36 | 1018.0 |
| 20260503225422 | 20 | 249 | 3.2 | 6.4 | 0.00 | 0.03 | 0.03 | 37 | 1017.8 |
| 20260503224918 | 20 | 157 | 1.6 | 3.2 | 0.00 | 0.03 | 0.03 | 35 | 1018.2 |
| 20260503224415 | 20 | 171 | 3.2 | 6.4 | 0.00 | 0.03 | 0.03 | 36 | 1018.1 |
| 20260503223913 | 20 | 195 | 4.8 | 4.8 | 0.00 | 0.03 | 0.03 | 36 | 1017.9 |
| 20260503223411 | 20 | 194 | 3.2 | 4.8 | 0.00 | 0.03 | 0.03 | 35 | 1018.1 |
| 20260503222911 | 20 | 222 | 3.2 | 4.8 | 0.00 | 0.03 | 0.03 | 36 | 1018.1 |
| 20260503222409 | 20 | 180 | 3.2 | 6.4 | 0.00 | 0.03 | 0.03 | 35 | 1018.1 |
| 20260503221907 | 20 | 196 | 4.8 | 14.5 | 0.00 | 0.03 | 0.03 | 35 | 1018.0 |
| 20260503221406 | 20 | 181 | 1.6 | 3.2 | 0.00 | 0.03 | 0.03 | 36 | 1018.0 |
| 20260503220901 | 20 | 234 | 4.8 | 6.4 | 0.00 | 0.03 | 0.03 | 35 | 1018.0 |
| 20260503220358 | 20 | 231 | 9.7 | 12.9 | 0.00 | 0.03 | 0.03 | 35 | 1018.1 |
| 20260503215855 | 20 | 246 | 4.8 | 6.4 | 0.00 | 0.03 | 0.03 | 35 | 1018.2 |
| 20260503215352 | 20 | 227 | 4.8 | 6.4 | 0.00 | 0.03 | 0.03 | 35 | 1018.3 |
| 20260503214849 | 20 | 235 | 9.7 | 14.5 | 0.00 | 0.03 | 0.03 | 34 | 1018.3 |
| 20260503214347 | 20 | 230 | 4.8 | 9.7 | 0.00 | 0.03 | 0.03 | 35 | 1018.4 |
| 20260503213844 | 20 | 222 | 4.8 | 11.3 | 0.00 | 0.03 | 0.03 | 35 | 1018.2 |
| 20260503213342 | 20 | 233 | 4.8 | 6.4 | 0.00 | 0.03 | 0.03 | 36 | 1018.2 |
| 20260503212839 | 20 | 315 | 3.2 | 11.3 | 0.00 | 0.03 | 0.03 | 35 | 1018.3 |
| 20260503212337 | 20 | 276 | 4.8 | 11.3 | 0.00 | 0.03 | 0.03 | 34 | 1018.5 |
| 20260503211833 | 20 | 272 | 11.3 | 16.1 | 0.00 | 0.03 | 0.03 | 34 | 1018.5 |
| 20260503211330 | 20 | 253 | 1.6 | 4.8 | 0.00 | 0.03 | 0.03 | 35 | 1018.5 |
| 20260503210825 | 20 | 225 | 8.0 | 11.3 | 0.00 | 0.03 | 0.03 | 35 | 1018.5 |
| 20260503210323 | 21 | 255 | 9.7 | 11.3 | 0.00 | 0.03 | 0.03 | 34 | 1018.6 |
| 20260503205818 | 21 | 239 | 6.4 | 12.9 | 0.00 | 0.03 | 0.03 | 33 | 1018.6 |
| 20260503205315 | 21 | 281 | 1.6 | 9.7 | 0.00 | 0.03 | 0.03 | 34 | 1018.7 |
| 20260503204811 | 20 | 242 | 6.4 | 11.3 | 0.00 | 0.03 | 0.03 | 35 | 1018.9 |
| 20260503204309 | 20 | 250 | 0.0 | 4.8 | 0.00 | 0.03 | 0.03 | 35 | 1018.8 |
| 20260503203806 | 21 | 240 | 12.9 | 14.5 | 0.00 | 0.03 | 0.03 | 36 | 1018.8 |
| 20260503203303 | 21 | 252 | 6.4 | 9.7 | 0.00 | 0.03 | 0.03 | 36 | 1018.9 |
| 20260503202800 | 20 | 259 | 3.2 | 6.4 | 0.00 | 0.03 | 0.03 | 35 | 1019.1 |
| 20260503202258 | 20 | 259 | 3.2 | 11.3 | 0.00 | 0.03 | 0.03 | 39 | 1019.0 |
| 20260503201755 | 20 | 240 | 4.8 | 9.7 | 0.00 | 0.03 | 0.03 | 39 | 1019.3 |
| 20260503201253 | 20 | 253 | 4.8 | 14.5 | 0.00 | 0.03 | 0.03 | 38 | 1019.6 |
| 20260503200750 | 20 | 264 | 6.4 | 9.7 | 0.00 | 0.03 | 0.03 | 40 | 1019.3 |
| 20260503200246 | 20 | 251 | 1.6 | 6.4 | 0.00 | 0.03 | 0.03 | 40 | 1019.8 |
| 20260503195743 | 20 | 274 | 0.0 | 6.4 | 0.00 | 0.03 | 0.03 | 40 | 1019.8 |
| 20260503195239 | 20 | 267 | 4.8 | 16.1 | 0.00 | 0.03 | 0.03 | 42 | 1019.9 |
| 20260503194738 | 19 | 1 | 1.6 | 6.4 | 0.00 | 0.03 | 0.03 | 43 | 1019.9 |
| 20260503194233 | 19 | 245 | 9.7 | 11.3 | 0.00 | 0.03 | 0.03 | 43 | 1019.8 |
| 20260503193729 | 19 | 158 | 3.2 | 11.3 | 0.00 | 0.03 | 0.03 | 43 | 1020.0 |
| 20260503193225 | 19 | 253 | 4.8 | 4.8 | 0.00 | 0.03 | 0.03 | 44 | 1020.2 |
| 20260503192721 | 18 | 242 | 0.0 | 11.3 | 0.00 | 0.03 | 0.03 | 44 | 1020.6 |
| 20260503192216 | 19 | 235 | 4.8 | 9.7 | 0.00 | 0.03 | 0.03 | 46 | 1020.7 |
| 20260503191714 | 18 | 144 | 1.6 | 3.2 | 0.00 | 0.03 | 0.03 | 45 | 1020.7 |
| 20260503191211 | 18 | 255 | 6.4 | 6.4 | 0.00 | 0.03 | 0.03 | 45 | 1020.7 |
| 20260503190707 | 18 | 265 | 8.0 | 9.7 | 0.00 | 0.03 | 0.03 | 45 | 1020.9 |
| 20260503190204 | 18 | 226 | 8.0 | 12.9 | 0.00 | 0.03 | 0.03 | 45 | 1020.9 |
| 20260503185701 | 18 | 65 | 0.0 | 4.8 | 0.00 | 0.03 | 0.03 | 44 | 1020.8 |
| 20260503185156 | 18 | 160 | 0.0 | 3.2 | 0.00 | 0.03 | 0.03 | 45 | 1021.2 |
| 20260503184651 | 18 | 221 | 6.4 | 20.9 | 0.00 | 0.03 | 0.03 | 44 | 1021.3 |
| 20260503184148 | 18 | 243 | 11.3 | 17.7 | 0.00 | 0.03 | 0.03 | 45 | 1021.3 |
| 20260503183644 | 18 | 173 | 4.8 | 9.7 | 0.00 | 0.03 | 0.03 | 46 | 1021.2 |
| 20260503183142 | 18 | 205 | 3.2 | 3.2 | 0.00 | 0.03 | 0.03 | 47 | 1021.3 |
| 20260503182640 | 18 | 264 | 3.2 | 6.4 | 0.00 | 0.03 | 0.03 | 45 | 1021.2 |
| 20260503182139 | 17 | 287 | 6.4 | 11.3 | 0.00 | 0.03 | 0.03 | 43 | 1021.3 |
| 20260503181635 | 17 | 256 | 11.3 | 12.9 | 0.00 | 0.03 | 0.03 | 43 | 1021.2 |
| 20260503181132 | 17 | 300 | 4.8 | 12.9 | 0.00 | 0.03 | 0.03 | 45 | 1021.3 |
| 20260503180628 | 17 | 250 | 6.4 | 11.3 | 0.00 | 0.03 | 0.03 | 42 | 1021.3 |
| 20260503180126 | 17 | 202 | 1.6 | 6.4 | 0.00 | 0.03 | 0.03 | 45 | 1021.2 |
| 20260503175623 | 18 | 239 | 8.0 | 14.5 | 0.00 | 0.03 | 0.03 | 41 | 1021.4 |
| 20260503175120 | 18 | 3 | 0.0 | 3.2 | 0.00 | 0.03 | 0.03 | 44 | 1021.3 |
| 20260503174616 | 17 | 268 | 1.6 | 4.8 | 0.00 | 0.03 | 0.03 | 42 | 1021.3 |
| 20260503174114 | 17 | 252 | 3.2 | 9.7 | 0.00 | 0.03 | 0.03 | 41 | 1021.5 |
| 20260503173609 | 17 | 252 | 3.2 | 6.4 | 0.00 | 0.03 | 0.03 | 46 | 1021.6 |
| 20260503173105 | 17 | 282 | 6.4 | 17.7 | 0.00 | 0.03 | 0.03 | 43 | 1021.7 |
| 20260503172602 | 17 | 295 | 3.2 | 17.7 | 0.00 | 0.03 | 0.03 | 42 | 1021.6 |
| 20260503172100 | 17 | 320 | 3.2 | 4.8 | 0.00 | 0.03 | 0.03 | 41 | 1021.7 |
| 20260503171556 | 17 | 252 | 3.2 | 11.3 | 0.00 | 0.03 | 0.03 | 43 | 1021.9 |
| 20260503171054 | 17 | 304 | 4.8 | 9.7 | 0.00 | 0.03 | 0.03 | 41 | 1021.7 |
| 20260503170550 | 17 | 263 | 4.8 | 6.4 | 0.00 | 0.03 | 0.03 | 44 | 1021.8 |
| 20260503150942 | 15 | 167 | 3.2 | 6.4 | 0.00 | 0.03 | 0.03 | 56 | 1022.8 |
| 20260503150439 | 15 | 193 | 3.2 | 3.2 | 0.00 | 0.03 | 0.03 | 55 | 1022.9 |
| 20260503131332 | 11 | 68 | 1.6 | 4.8 | 0.00 | 0.03 | 0.03 | 77 | 1022.3 |
| 20260503130829 | 11 | 103 | 3.2 | 4.8 | 0.00 | 0.03 | 0.03 | 79 | 1022.4 |
| 20260503130327 | 10 | 63 | 0.0 | 1.6 | 0.00 | 0.03 | 0.03 | 85 | 1022.4 |
| 20260503110720 | 5 | 248 | 0.0 | 0.0 | 0.00 | 0.03 | 0.03 | 98 | 1021.3 |
| 20260503110218 | 5 | 248 | 0.0 | 0.0 | 0.00 | 0.03 | 0.03 | 98 | 1021.4 |
| 20260503100144 | 6 | 196 | 0.0 | 0.0 | 0.00 | 0.00 | 0.00 | 98 | 1020.6 |
| 20260503081527 | 7 | 188 | 0.0 | 0.0 | 0.00 | 0.00 | 0.00 | 97 | 1019.4 |
| 20260503081025 | 7 | 188 | 0.0 | 0.0 | 0.00 | 0.00 | 0.00 | 97 | 1019.4 |
| 20260503080520 | 7 | 188 | 0.0 | 0.0 | 0.00 | 0.00 | 0.00 | 97 | 1019.4 |
| 20260503072454 | 7 | 200 | 0.0 | 0.0 | 0.00 | 0.00 | 0.00 | 97 | 1019.1 |
| 20260503071951 | 7 | 200 | 0.0 | 0.0 | 0.00 | 0.00 | 0.00 | 97 | 1019.0 |
| 20260503071448 | 7 | 200 | 0.0 | 0.0 | 0.00 | 0.00 | 0.00 | 97 | 1019.0 |
| 20260503070944 | 7 | 200 | 0.0 | 0.0 | 0.00 | 0.00 | 0.00 | 97 | 1018.9 |
| 20260503070441 | 7 | 200 | 0.0 | 0.0 | 0.00 | 0.00 | 0.00 | 97 | 1018.8 |